User: anonymous   Login
Location: Unspecified
(31.8756°N, 0.0000°E)
Time: 09:25:38
(UTC+00:00)
Language:

deb HAPS - Orbit

View from above orbital plane
View from above orbital plane
View from above satellite
View from above satellite

Ground track
Ground track

The orbit is defined by the following mean orbital elements,

1 24594U          26088.15891194 +.00000000 +00000-0 +85013-3 0 00009
2 24594  81.4464  73.7349 0448421 192.4222 166.5606 14.11712786    09
Epoch (UTC): 29 March 2026 03:48:49
Eccentricity: 0.0448421
inclination: 81.4464°
perigee height: 529 km
apogee height: 1178 km
right ascension of ascending node: 73.7349°
argument of perigee: 192.4222°
revolutions per day: 14.11712786
mean anomaly at epoch: 166.5606°

The dashed part of the orbit path shows where the satellite is in the earth's shadow,  

DLR